Location: Berg
(47.2344°N, 9.5296°E)
Time: 21:31:14
(UTC+00:00)

Nadezhda 4 Rocket - Pass Details

Date: 24 January 2021
Orbit: 949 x 993 km, 83.0° (Epoch: 03 March)

Event Time Altitude Azimuth Distance (km) Brightness Sun altitude
Rises 17:00:15 0° 172° (S) 3,669 7.2 -8.3°
Reaches altitude 10° 17:02:48 10° 169° (SSE) 2,720 6.4 -8.7°
Maximum altitude 17:08:52 57° 92° (E) 1,137 4.1 -9.7°
Drops below altitude 10° 17:14:54 10° 16° (NNE) 2,708 6.0 -10.7°
Sets 17:17:26 0° 13° (NNE) 3,653 6.7 -11.1°
